Theta_e
312 312 313 313 313 312 313 314 314 314 314 315 316 316 318 319 319 311 304 311 315 320 321 309 308 306 306 301 302 301 289 286 288 289 290 295 294 297 300 297 300 304 305 322 326
312 312 312 312 312 312 313 313 314 314 314 315 315 316 317 319 312 305 312 318 319 319 309 304 302 304 299 298 298 293 288 289 293 293 293 296 296 296 296 296 296 298 308 318 325
311 312 312 311 311 312 313 313 313 314 314 315 315 316 317 316 305 304 316 317 318 318 309 307 306 304 298 298 297 295 288 294 296 299 298 297 296 298 295 293 294 296 300 302 308
311 311 311 311 312 312 312 313 313 313 314 314 315 316 317 311 293 307 316 318 318 316 308 305 303 298 296 294 298 291 297 298 298 300 298 296 298 296 297 297 301 300 303 302 300
311 311 311 312 312 312 312 312 313 313 314 314 315 316 311 301 301 311 317 315 310 309 306 303 300 298 294 296 297 293 296 299 299 299 299 299 296 296 296 299 301 302 302 301 300
311 311 312 312 312 312 312 312 313 313 313 314 316 317 307 296 309 311 310 310 308 306 305 305 302 303 298 297 295 296 297 297 298 298 299 296 295 296 297 300 300 301 301 300 301
312 311 312 311 311 311 311 312 313 313 313 315 315 312 305 299 308 309 310 308 308 307 304 306 306 301 299 295 299 297 292 295 296 298 297 298 292 294 298 301 299 300 302 304 305
313 312 312 311 311 311 311 312 312 312 313 314 315 309 298 309 305 309 309 308 309 310 308 308 308 302 299 300 297 292 291 285 294 297 298 295 286 295 299 298 295 297 299 300 303
313 313 312 311 311 310 311 311 312 312 314 314 308 302 296 311 304 307 307 305 307 309 308 310 306 299 298 291 286 288 281 286 289 297 295 293 287 295 299 297 294 294 296 299 301
313 313 311 311 310 310 311 311 310 309 312 312 307 296 300 298 303 306 306 307 304 304 304 301 298 292 290 286 275 282 286 287 286 293 293 291 292 296 296 295 294 294 296 296 300
314 312 311 310 309 310 305 302 297 296 299 294 296 297 299 303 306 304 306 304 303 299 290 297 288 280 287 290 291 289 289 287 288 295 292 292 291 292 295 293 293 293 294 295 299
313 312 310 309 309 309 304 297 296 298 291 299 299 299 302 303 298 301 305 297 296 290 292 289 286 290 293 292 290 289 284 283 288 294 294 291 289 291 292 293 292 291 292 294 297
313 312 309 308 308 303 299 298 304 302 292 295 298 298 299 301 296 297 301 298 293 290 289 285 289 293 291 289 289 286 282 284 284 291 293 289 287 287 292 293 294 293 293 292 296
313 311 308 307 301 298 294 301 303 302 283 289 293 296 299 300 294 302 302 297 294 289 289 287 292 290 288 288 288 283 292 288 287 289 283 287 277 284 287 289 291 292 292 294 296
313 310 307 304 297 295 298 301 301 297 274 290 292 301 299 295 295 296 301 297 291 291 288 285 287 286 286 288 289 286 291 289 288 289 288 281 278 282 287 285 288 292 294 297 298
312 309 306 301 299 299 301 301 298 281 275 285 292 291 291 294 294 296 296 297 296 290 290 288 292 289 288 290 290 291 289 289 289 288 279 278 277 275 284 286 288 291 293 295 297
311 309 304 301 296 301 301 296 279 274 285 283 285 290 289 288 291 291 291 288 286 279 281 286 287 290 291 287 291 288 284 272 272 273 273 281 279 278 287 290 290 290 292 294 295
310 308 303 303 300 300 295 282 273 278 280 289 289 289 285 288 287 289 287 284 288 286 282 279 277 286 290 287 284 285 284 274 270 272 274 281 275 278 288 291 291 292 292 292 293
308 300 299 301 300 297 287 274 277 280 286 286 287 282 281 287 286 285 285 284 287 288 281 281 281 288 289 289 287 285 280 286 280 275 275 277 281 286 289 288 288 288 289 289 290
299 297 297 301 299 293 279 278 281 286 288 288 280 284 279 280 282 283 282 286 287 289 289 285 278 286 288 289 290 286 288 279 277 268 270 276 276 278 284 284 285 285 285 287 289
297 290 296 300 297 285 275 275 282 286 289 286 282 282 284 283 282 282 283 286 288 288 289 287 283 281 286 283 282 284 283 284 282 279 276 274 275 284 284 284 283 284 286 286 287
295 285 297 297 280 278 275 277 285 284 289 288 287 285 282 285 282 281 282 286 290 290 285 288 283 275 280 285 287 286 284 284 277 276 278 279 277 288 285 284 284 284 286 286 287
288 287 297 294 275 277 278 275 281 283 285 286 284 287 287 284 279 284 285 289 291 289 286 288 274 267 276 281 285 283 285 286 285 281 278 275 276 286 285 284 284 284 284 286 286
288 282 286 289 284 280 274 273 274 285 285 287 286 287 285 282 285 283 284 287 289 289 293 291 281 277 274 278 281 279 282 284 283 275 278 278 279 282 283 282 283 284 284 284 285
288 285 284 279 282 283 281 280 277 276 282 285 283 285 284 280 282 281 285 284 287 291 288 287 274 280 280 281 282 281 280 281 280 281 277 279 280 283 284 282 283 284 285 285 285
285 285 287 283 284 282 282 278 280 280 280 279 279 284 285 281 282 281 284 283 282 286 285 286 271 276 271 280 280 278 280 280 280 281 281 282 282 287 287 284 282 284 285 284 285
293 293 291 286 283 281 281 281 282 283 283 285 284 282 282 285 287 286 287 287 286 284 283 281 274 267 266 275 271 269 273 279 279 281 282 279 284 286 283 285 284 284 285 285 285
Wind_Speed
6 7 9 9 10 11 11 12 13 14 15 16 16 16 15 17 15 4 6 5 8 15 17 8 8 7 2 1 3 4 4 2 5 6 7 7 10 4 7 4 8 10 5 5 2
7 8 9 9 10 10 11 12 13 14 15 15 16 15 15 16 2 8 2 8 11 13 8 8 9 9 2 2 3 4 2 1 2 3 5 9 7 10 11 17 7 11 7 11 7
7 8 9 9 10 11 12 13 13 14 14 15 15 15 14 11 2 3 6 9 10 12 5 5 6 2 3 1 3 5 3 5 3 8 7 7 9 7 8 8 2 11 24 10 6
7 8 9 10 11 12 12 13 14 14 15 15 14 13 14 2 1 1 6 8 11 11 6 8 7 5 5 4 5 3 4 8 7 8 7 6 6 7 7 9 13 14 17 11 10
7 8 9 10 11 12 13 14 14 14 15 15 12 12 5 3 3 2 6 8 6 8 9 7 9 4 3 2 6 3 6 10 9 12 9 7 6 5 9 10 12 13 13 17 8
6 7 8 9 11 13 14 15 15 15 14 12 10 11 2 3 3 4 5 5 7 7 7 8 4 4 1 2 2 4 5 12 5 7 6 8 5 4 8 10 13 15 12 12 10
6 6 8 9 11 13 14 16 16 15 12 9 8 4 3 1 2 3 2 2 2 5 4 4 5 5 3 3 1 4 3 8 4 3 5 6 6 4 6 15 15 15 13 15 16
7 6 7 9 10 13 15 16 16 13 8 7 6 3 1 0 3 2 5 1 2 4 3 3 3 3 3 5 4 2 3 7 8 8 4 5 6 8 12 11 14 17 16 16 17
7 6 7 9 11 13 16 16 13 7 7 5 3 1 2 1 1 0 1 2 2 1 1 1 2 1 2 4 5 8 4 7 8 5 7 6 7 10 12 12 11 13 18 19 19
9 6 6 8 11 13 16 14 6 5 3 4 3 2 1 2 2 2 2 1 2 2 1 2 3 3 3 6 1 5 4 5 6 6 6 7 9 11 14 13 14 15 15 16 17
10 6 5 7 10 13 8 4 3 3 1 1 2 1 2 4 2 3 1 1 1 2 0 3 5 2 3 2 6 6 5 7 6 4 3 5 5 11 12 12 15 15 14 16 16
9 6 3 6 10 13 2 2 3 2 1 0 2 2 1 1 1 2 1 0 1 4 2 5 2 2 2 4 5 4 2 5 6 3 2 6 4 7 11 10 10 12 15 19 17
10 7 3 5 9 5 3 3 1 2 2 1 1 1 2 1 2 1 3 4 2 3 3 3 2 1 3 5 1 3 3 3 7 4 3 7 1 8 8 7 11 11 13 17 17
10 7 3 4 3 1 1 2 2 1 5 2 2 2 2 1 0 2 2 0 2 2 2 2 4 1 4 2 2 4 7 6 5 2 2 4 5 4 10 10 14 13 9 12 16
11 9 4 1 1 1 2 1 1 2 3 2 3 1 0 1 3 1 1 1 2 3 3 3 4 3 3 1 2 8 7 6 2 1 3 3 2 5 9 12 16 12 11 8 10
12 10 5 0 1 2 1 2 2 7 6 2 4 3 2 3 2 4 2 0 1 3 3 7 4 5 3 7 5 7 7 3 3 2 1 6 4 6 9 10 12 10 12 14 12
14 10 5 1 2 2 2 2 6 5 4 3 4 4 3 3 3 1 2 0 1 5 3 3 2 3 1 4 4 7 5 4 6 4 3 0 6 5 5 5 3 8 10 11 11
15 10 2 2 3 3 2 6 3 3 5 2 3 3 3 2 1 2 1 1 1 1 2 1 5 1 2 1 3 4 1 4 4 1 4 4 1 5 3 4 3 3 2 6 7
16 2 3 2 3 3 5 3 8 6 6 8 2 4 3 1 3 2 4 2 2 3 2 2 1 2 1 1 1 4 3 2 1 2 2 2 1 3 3 3 6 6 9 8 8
5 4 3 4 3 4 6 6 3 3 3 4 4 4 5 3 4 5 2 2 3 1 1 1 1 1 1 1 4 3 2 2 3 2 3 2 2 3 3 2 5 6 6 8 7
4 4 2 3 3 5 4 7 4 3 1 4 5 4 5 6 6 4 5 2 1 3 1 1 3 4 4 1 2 5 2 2 2 4 2 2 4 5 6 5 5 4 5 4 5
5 3 2 2 5 1 4 7 3 4 2 2 1 2 6 6 4 2 3 3 5 4 4 1 3 1 1 2 1 1 2 0 4 3 2 1 5 4 6 7 6 4 5 4 5
5 3 1 2 6 4 2 3 2 4 5 5 5 4 3 6 3 4 4 1 5 2 3 4 2 3 6 6 4 3 3 2 1 2 4 4 5 2 6 6 5 5 4 4 5
5 6 2 2 1 7 6 4 4 3 3 4 5 4 4 3 3 5 3 2 2 1 2 2 3 4 6 3 2 4 3 3 4 2 2 5 5 6 7 8 7 6 5 4 5
4 5 7 9 9 5 7 10 7 5 2 3 3 5 8 5 4 5 5 2 1 3 1 2 4 4 5 8 5 6 8 8 7 7 5 4 7 8 12 10 10 8 6 6 5
8 6 3 4 11 13 9 9 11 5 9 6 5 10 7 7 8 9 8 6 5 3 5 2 2 4 5 4 7 8 11 10 11 8 8 7 9 9 9 7 7 8 7 6 4
3 2 5 11 7 12 10 7 13 11 7 5 11 6 7 6 6 4 3 5 8 9 7 5 5 4 6 4 6 11 12 17 6 7 11 10 9 5 6 13 12 9 9 9 8
Wind_Direction
1 359 357 357 358 357 356 354 352 348 346 345 344 343 340 334 325 57 45 329 332 327 323 303 350 331 325 301 349 18 54 284 347 6 312 354 1 355 291 11 323 336 10 83 18
349 353 354 354 353 352 351 349 348 346 343 342 340 337 336 338 305 73 313 335 336 325 327 339 337 337 32 66 9 74 119 68 339 23 338 333 20 332 357 343 326 341 19 16 24
338 345 350 351 349 347 347 344 343 341 340 339 335 332 332 332 4 29 336 345 330 320 300 287 322 286 16 55 33 346 200 344 3 15 13 342 338 345 351 315 6 317 307 325 320
326 336 341 344 344 342 340 339 339 338 336 334 330 327 325 304 85 331 327 328 318 311 352 3 358 37 51 36 357 2 335 10 333 346 331 301 288 305 253 264 286 297 295 303 307
314 326 331 334 336 337 336 335 335 334 332 329 328 330 358 49 56 202 350 335 337 357 38 14 35 13 67 346 349 22 338 324 323 306 283 270 263 244 285 306 290 277 274 293 275
292 311 322 325 329 332 332 330 328 327 326 322 326 332 344 100 279 25 10 358 19 20 29 35 28 303 318 330 40 301 306 289 302 301 328 350 308 45 340 320 339 354 331 296 331
266 294 317 322 323 325 327 327 323 321 318 317 327 324 349 124 335 25 305 10 3 67 52 35 349 24 324 336 7 274 315 329 124 341 19 10 318 61 325 353 6 6 357 346 340
248 275 307 318 321 321 322 322 320 314 304 307 320 321 89 342 333 2 354 264 320 78 91 87 353 341 309 327 305 295 31 4 324 5 12 57 278 339 355 11 1 355 350 351 342
223 257 296 314 320 322 321 319 314 308 291 295 341 93 356 347 34 352 120 15 297 218 123 159 60 117 335 348 21 23 331 333 327 49 8 58 311 346 10 10 355 6 350 343 332
220 234 281 309 319 323 322 310 298 322 268 235 269 41 261 78 49 315 249 130 313 266 30 8 74 66 19 51 276 332 339 315 302 335 15 351 2 15 7 6 355 9 347 333 330
218 215 274 311 318 323 347 355 27 9 2 63 19 324 44 336 91 248 178 336 245 262 197 261 54 123 133 139 191 216 284 298 274 299 327 333 355 349 4 1 10 354 341 329 333
200 203 249 305 314 318 328 55 118 190 346 58 308 269 144 96 291 244 194 293 186 294 232 29 19 207 216 256 259 257 248 285 298 337 329 346 15 9 5 7 19 358 343 338 339
187 190 205 295 319 335 79 96 18 17 147 218 171 25 159 38 329 170 36 340 232 294 327 149 218 293 346 321 19 271 177 244 234 310 92 327 153 5 359 344 351 352 354 335 335
179 176 194 300 350 295 54 132 321 351 78 205 205 230 216 264 276 48 26 169 295 262 337 219 175 23 325 312 50 299 188 190 308 359 315 68 307 2 351 345 348 351 352 334 343
172 173 175 116 219 41 165 118 310 63 11 169 142 165 163 178 126 269 335 329 301 315 59 230 115 39 315 104 48 247 306 281 201 347 265 305 1 308 6 349 342 353 359 4 358
171 165 158 119 82 150 49 3 54 48 256 144 133 177 178 204 187 172 251 315 280 319 239 236 139 146 209 292 225 276 300 281 142 199 45 260 118 316 3 332 342 360 17 3 18
161 159 149 63 163 147 71 42 47 142 352 222 182 165 216 155 170 236 194 149 68 43 342 340 175 122 95 330 326 21 26 350 5 24 248 36 63 227 273 299 358 13 24 18 12
150 140 102 88 103 99 65 54 127 215 203 185 139 131 151 144 191 189 203 145 324 88 276 53 348 72 340 124 273 294 96 152 188 319 270 15 352 274 240 255 192 317 356 47 27
133 112 121 160 120 82 79 85 211 195 168 152 74 131 316 224 181 194 197 122 103 50 179 35 145 101 76 328 58 329 58 226 106 29 44 201 346 314 155 88 64 36 8 33 21
122 134 151 158 112 74 80 238 217 236 114 125 158 153 173 222 171 166 180 276 132 56 41 344 8 339 95 11 280 248 246 55 2 47 301 287 179 228 184 101 54 56 23 2 20
104 127 204 129 81 56 169 227 233 232 79 149 187 163 170 174 172 209 189 276 127 175 280 345 104 296 65 48 267 336 346 339 151 138 255 302 251 209 168 157 126 85 74 60 29
132 136 191 97 79 175 171 197 271 168 99 165 137 150 165 158 157 227 179 141 171 167 174 179 115 189 164 264 223 276 283 266 119 292 250 208 269 152 150 148 138 120 95 81 58
104 113 109 106 155 206 244 301 254 164 188 180 198 200 190 155 144 172 138 75 107 181 187 165 329 30 354 350 331 258 219 210 229 122 224 143 257 176 133 144 151 141 98 61 90
119 137 133 214 217 147 144 228 229 248 215 186 180 127 102 152 137 179 127 186 103 63 147 79 108 165 194 183 169 275 258 249 180 145 226 222 173 200 187 181 171 163 152 127 103
150 188 176 177 210 180 169 167 164 169 227 243 205 192 158 160 160 190 136 128 117 179 210 169 164 195 254 259 252 225 237 246 229 224 183 199 187 213 195 189 183 175 168 143 123
147 156 150 151 140 158 183 207 174 180 150 225 176 190 187 156 184 187 149 172 179 181 195 224 213 99 291 283 252 255 238 233 235 245 251 253 268 209 191 142 164 172 159 155 159
159 153 128 152 147 159 205 180 185 148 216 200 177 147 193 197 127 113 137 139 154 154 187 154 126 91 269 352 339 298 224 213 197 204 209 213 221 144 155 173 177 175 168 169 167